contact:dominique.lefevre@mio.osupytheas.fr, maurice.libes@osupytheas.fr, didier.mallarino@osupytheas.fr
Project:EMSO http://www.emso-fr.org/EMSO-France
Depth: 2436.0 m
Title:EMSO Ligure Ouest : Data MII capteur AQUADOPP
Date,Latitude,Longitude,X_East,Y_North,Z_Up,Amplitude_X,Amplitude_Y,Amplitude_Z,Batterie,SoundSpeed,Heading,Pitch,Roll,Pressure,TIS,Speed,Direction
, degrees North, degrees East, m.s-1, m.s-1,m.s-1, 1, 1, 1, Volt, m.s-1, degree, degree, degree, dbar, degree_C, m.s-1, degree
2021-08-12T00:04:03,42.805,6.029,0.032,-0.019,0.046,102.0,102.0,100.0,13.4,1505.2,327.2,-0.8,1.8,2470.654,13.28,0.037,120.7
2021-08-12T00:07:03,42.805,6.029,0.024,-0.014,0.004,102.0,102.0,101.0,13.4,1505.2,327.4,-0.8,1.8,2470.654,13.28,0.027,120.3
2021-08-12T00:10:03,42.805,6.029,0.028,-0.035,-0.038,103.0,100.0,101.0,13.3,1505.2,328.3,-0.8,1.8,2470.625,13.28,0.044,141.3
2021-08-12T00:13:03,42.805,6.029,0.023,-0.012,-0.012,101.0,102.0,100.0,13.4,1505.2,328.7,-0.7,1.8,2470.631,13.28,0.025,117.6
2021-08-12T00:16:03,42.805,6.029,0.01,-0.004,0.007,102.0,102.0,101.0,13.3,1505.2,326.4,-0.8,1.8,2470.638,13.28,0.01,111.8
2021-08-12T00:19:03,42.805,6.029,0.0,-0.019,-0.007,102.0,102.0,101.0,13.4,1505.2,329.4,-0.8,1.8,2470.658,13.28,0.019,180.0
2021-08-12T00:22:03,42.805,6.029,0.024,-0.034,0.011,102.0,102.0,101.0,13.4,1505.2,326.7,-0.8,1.8,2470.616,13.28,0.041,144.8
2021-08-12T00:25:03,42.805,6.029,0.012,-0.022,-0.02,102.0,102.0,99.0,13.4,1505.2,329.4,-0.7,1.8,2470.628,13.28,0.025,151.4
2021-08-12T00:28:03,42.805,6.029,0.014,-0.021,-0.015,102.0,102.0,101.0,13.4,1505.2,327.3,-0.7,1.8,2470.632,13.28,0.025,146.3
2021-08-12T00:31:03,42.805,6.029,0.026,-0.008,-0.02,102.0,103.0,101.0,13.3,1505.2,325.7,-0.8,1.8,2470.614,13.28,0.027,107.1
2021-08-12T00:34:03,42.805,6.029,0.021,-0.031,-0.04,103.0,103.0,100.0,13.4,1505.2,328.3,-0.8,1.9,2470.604,13.28,0.037,145.9
2021-08-12T00:37:03,42.805,6.029,0.013,-0.027,0.003,101.0,102.0,102.0,13.4,1505.2,326.9,-0.7,1.8,2470.599,13.28,0.029,154.3
2021-08-12T00:40:03,42.805,6.029,0.033,-0.025,-0.024,102.0,102.0,101.0,13.3,1505.2,328.9,-0.7,1.8,2470.604,13.28,0.041,127.1
2021-08-12T00:43:03,42.805,6.029,0.013,-0.018,-0.026,102.0,101.0,100.0,13.4,1505.2,328.6,-0.7,1.8,2470.615,13.28,0.022,144.2
2021-08-12T00:46:03,42.805,6.029,0.013,-0.008,0.012,102.0,102.0,101.0,13.4,1505.2,327.0,-0.7,1.8,2470.587,13.28,0.015,121.6
2021-08-12T00:49:03,42.805,6.029,0.012,-0.019,-0.028,103.0,102.0,101.0,13.3,1505.2,326.3,-0.8,1.9,2470.545,13.28,0.022,147.7
2021-08-12T00:52:03,42.805,6.029,0.01,-0.017,-0.023,102.0,101.0,101.0,13.4,1505.2,330.1,-0.7,1.9,2470.607,13.28,0.019,149.5
2021-08-12T00:55:03,42.805,6.029,0.018,-0.007,-0.026,102.0,101.0,102.0,13.4,1505.2,326.8,-0.7,1.8,2470.568,13.28,0.019,111.2
2021-08-12T00:58:03,42.805,6.029,0.03,-0.022,0.0,102.0,101.0,101.0,13.4,1505.2,329.1,-0.8,1.8,2470.564,13.28,0.037,126.3
2021-08-12T01:04:03,42.805,6.029,0.035,-0.023,-0.015,105.0,104.0,103.0,13.3,1505.2,328.6,-0.8,1.8,2470.6,13.28,0.041,123.3
2021-08-12T01:07:03,42.805,6.029,0.014,-0.026,-0.01,102.0,102.0,102.0,13.4,1505.2,326.7,-0.8,1.8,2470.596,13.28,0.029,151.7
2021-08-12T01:10:03,42.805,6.029,0.008,-0.007,-0.003,102.0,102.0,101.0,13.3,1505.2,328.4,-0.8,1.8,2470.6,13.28,0.01,131.2
2021-08-12T01:13:03,42.805,6.029,0.022,-0.026,-0.026,102.0,102.0,100.0,13.4,1505.2,328.5,-0.7,1.8,2470.608,13.28,0.034,139.8
2021-08-12T01:16:03,42.805,6.029,0.007,-0.006,-0.019,101.0,103.0,101.0,13.3,1505.2,328.0,-0.7,1.8,2470.589,13.28,0.009,130.6
2021-08-12T01:19:03,42.805,6.029,0.02,-0.017,0.023,103.0,101.0,102.0,13.4,1505.2,328.8,-0.7,1.8,2470.577,13.28,0.026,130.4
2021-08-12T01:22:03,42.805,6.029,0.021,-0.026,-0.028,103.0,102.0,100.0,13.4,1505.2,329.6,-0.8,1.8,2470.56,13.28,0.033,141.1
2021-08-12T01:25:03,42.805,6.029,0.025,-0.038,-0.008,102.0,101.0,100.0,13.3,1505.2,324.9,-0.8,1.8,2470.562,13.28,0.045,146.7
2021-08-12T01:28:03,42.805,6.029,0.007,-0.013,0.019,102.0,102.0,101.0,13.4,1505.2,328.7,-0.8,1.8,2470.56,13.28,0.014,151.7
2021-08-12T01:31:03,42.805,6.029,0.014,-0.009,-0.024,102.0,101.0,101.0,13.4,1505.2,328.5,-0.7,1.8,2470.579,13.28,0.016,122.7
2021-08-12T01:34:03,42.805,6.029,0.01,-0.024,0.026,104.0,102.0,100.0,13.3,1505.2,329.1,-0.7,1.8,2470.562,13.28,0.026,157.4
2021-08-12T01:37:03,42.805,6.029,0.034,-0.022,-0.029,101.0,101.0,100.0,13.3,1505.2,325.0,-0.8,1.8,2470.576,13.28,0.04,122.9
2021-08-12T01:40:03,42.805,6.029,0.005,-0.018,-0.027,102.0,103.0,100.0,13.3,1505.2,328.6,-0.7,1.8,2470.568,13.28,0.018,164.5
2021-08-12T01:43:03,42.805,6.029,0.03,-0.051,-0.024,102.0,102.0,100.0,13.3,1505.2,329.4,-0.7,1.9,2470.524,13.28,0.059,149.5
2021-08-12T01:46:03,42.805,6.029,0.01,-0.017,-0.025,102.0,102.0,101.0,13.4,1505.2,326.2,-0.8,1.8,2470.563,13.28,0.019,149.5
2021-08-12T01:49:03,42.805,6.029,0.022,-0.02,-0.016,103.0,101.0,101.0,13.4,1505.2,327.2,-0.8,1.8,2470.591,13.28,0.029,132.3
2021-08-12T01:52:03,42.805,6.029,0.025,-0.032,-0.031,102.0,100.0,102.0,13.4,1505.2,328.9,-0.8,1.8,2470.509,13.28,0.04,142.0
2021-08-12T01:55:03,42.805,6.029,0.017,-0.015,-0.012,102.0,103.0,101.0,13.4,1505.2,326.1,-0.8,1.8,2470.576,13.28,0.022,131.4
2021-08-12T01:58:03,42.805,6.029,0.013,-0.022,0.01,103.0,101.0,101.0,13.4,1505.2,325.9,-0.8,1.8,2470.569,13.28,0.025,149.4
2021-08-12T02:04:03,42.805,6.029,-0.007,-0.007,-0.021,102.0,101.0,100.0,13.4,1505.2,328.8,-0.7,1.8,2470.549,13.28,0.009,225.0
2021-08-12T02:07:03,42.805,6.029,0.015,-0.006,-0.001,102.0,103.0,100.0,13.3,1505.2,327.7,-0.8,1.8,2470.598,13.28,0.016,111.8
2021-08-12T02:10:03,42.805,6.029,0.006,-0.009,0.023,102.0,101.0,101.0,13.4,1505.2,328.0,-0.8,1.8,2470.552,13.28,0.01,146.3
2021-08-12T02:13:03,42.805,6.029,0.0,-0.018,-0.025,102.0,101.0,100.0,13.3,1505.2,325.7,-0.7,1.8,2470.557,13.28,0.018,180.0
2021-08-12T02:16:03,42.805,6.029,-0.005,-0.014,-0.018,102.0,102.0,100.0,13.4,1505.2,330.3,-0.7,1.8,2470.53,13.28,0.014,199.6
2021-08-12T02:19:03,42.805,6.029,0.007,-0.01,-0.019,102.0,102.0,100.0,13.4,1505.2,327.0,-0.8,1.8,2470.543,13.28,0.012,145.0
2021-08-12T02:22:03,42.805,6.029,0.031,-0.014,-0.017,104.0,102.0,100.0,13.4,1505.2,325.6,-0.7,1.8,2470.547,13.28,0.034,114.3
2021-08-12T02:25:03,42.805,6.029,-0.002,-0.015,-0.012,101.0,103.0,100.0,13.4,1505.2,329.7,-0.8,1.8,2470.536,13.28,0.015,187.6
2021-08-12T02:28:03,42.805,6.029,-0.006,-0.014,0.001,102.0,101.0,101.0,13.4,1505.2,325.3,-0.8,1.8,2470.509,13.28,0.015,203.2
2021-08-12T02:31:03,42.805,6.029,0.01,-0.001,-0.013,102.0,100.0,100.0,13.4,1505.2,328.7,-0.8,1.8,2470.519,13.28,0.01,95.7
2021-08-12T02:34:03,42.805,6.029,-0.005,-0.004,0.011,102.0,101.0,100.0,13.4,1505.2,329.9,-0.8,1.8,2470.52,13.28,0.006,231.3
2021-08-12T02:37:03,42.805,6.029,0.002,-0.012,-0.02,104.0,102.0,99.0,13.3,1505.2,330.7,-0.7,1.8,2470.46,13.28,0.012,170.5
2021-08-12T02:40:03,42.805,6.029,0.004,-0.027,0.004,100.0,102.0,100.0,13.4,1505.2,327.5,-0.7,1.8,2470.519,13.28,0.027,171.6
2021-08-12T02:43:03,42.805,6.029,0.0,-0.004,0.011,101.0,101.0,101.0,13.3,1505.2,330.3,-0.7,1.8,2470.512,13.28,0.004,180.0
2021-08-12T02:46:03,42.805,6.029,0.019,-0.009,-0.009,101.0,103.0,101.0,13.3,1505.2,329.1,-0.8,1.8,2470.504,13.28,0.021,115.3
2021-08-12T02:49:03,42.805,6.029,-0.005,-0.004,-0.005,101.0,102.0,100.0,13.3,1505.2,328.0,-0.8,1.8,2470.525,13.28,0.006,231.3
2021-08-12T02:52:03,42.805,6.029,0.0,-0.036,-0.013,100.0,102.0,100.0,13.4,1505.2,330.1,-0.8,1.8,2470.485,13.28,0.036,180.0
2021-08-12T02:55:03,42.805,6.029,0.014,-0.032,-0.021,102.0,101.0,101.0,13.4,1505.2,327.2,-0.8,1.9,2470.51,13.28,0.034,156.4
2021-08-12T02:58:03,42.805,6.029,-0.008,-0.002,0.0,101.0,102.0,100.0,13.4,1505.2,330.3,-0.7,1.8,2470.506,13.28,0.008,256.0
2021-08-12T03:04:03,42.805,6.029,-0.004,-0.012,-0.001,101.0,103.0,100.0,13.4,1505.2,330.8,-0.8,1.8,2470.538,13.28,0.012,198.4
2021-08-12T03:07:03,42.805,6.029,0.006,-0.018,0.02,102.0,101.0,100.0,13.4,1505.2,327.4,-0.7,1.8,2470.517,13.28,0.018,161.6
2021-08-12T03:10:03,42.805,6.029,0.011,-0.013,-0.011,102.0,102.0,100.0,13.4,1505.2,327.9,-0.7,1.8,2470.517,13.28,0.017,139.8
2021-08-12T03:13:03,42.805,6.029,0.015,-0.021,-0.005,101.0,101.0,100.0,13.4,1505.2,330.3,-0.8,1.8,2470.506,13.28,0.025,144.5
2021-08-12T03:16:03,42.805,6.029,-0.014,0.0,-0.045,100.0,103.0,100.0,13.4,1505.2,329.7,-0.8,1.8,2470.53,13.28,0.014,270.0
2021-08-12T03:19:03,42.805,6.029,-0.003,-0.021,0.008,101.0,102.0,100.0,13.4,1505.2,326.2,-0.8,1.9,2470.482,13.28,0.021,188.1
2021-08-12T03:22:03,42.805,6.029,0.0,-0.024,-0.002,102.0,101.0,100.0,13.4,1505.2,329.7,-0.8,1.8,2470.498,13.28,0.024,180.0
2021-08-12T03:25:03,42.805,6.029,-0.025,0.004,-0.004,101.0,102.0,100.0,13.4,1505.2,329.6,-0.8,1.8,2470.481,13.28,0.025,279.1
2021-08-12T03:28:03,42.805,6.029,0.011,-0.015,0.004,101.0,101.0,101.0,13.4,1505.2,328.6,-0.8,1.8,2470.479,13.28,0.018,143.7
2021-08-12T03:31:03,42.805,6.029,-0.005,-0.008,-0.006,103.0,102.0,100.0,13.4,1505.2,328.8,-0.8,1.8,2470.502,13.28,0.009,212.0
2021-08-12T03:34:03,42.805,6.029,0.011,-0.01,-0.01,101.0,102.0,101.0,13.3,1505.2,326.7,-0.8,1.8,2470.508,13.28,0.014,132.3
2021-08-12T03:37:03,42.805,6.029,-0.008,-0.015,-0.013,103.0,99.0,100.0,13.3,1505.2,328.6,-0.8,1.8,2470.463,13.28,0.017,208.1
2021-08-12T03:40:03,42.805,6.029,0.005,-0.01,-0.002,102.0,101.0,100.0,13.4,1505.2,327.8,-0.8,1.8,2470.458,13.28,0.011,153.4
2021-08-12T03:43:03,42.805,6.029,-0.011,0.006,0.002,102.0,101.0,100.0,13.3,1505.2,330.4,-0.8,1.8,2470.482,13.28,0.012,298.6
2021-08-12T03:46:03,42.805,6.029,0.008,-0.01,-0.028,101.0,102.0,99.0,13.4,1505.2,326.4,-0.7,1.8,2470.473,13.28,0.012,141.3
2021-08-12T03:49:03,42.805,6.029,-0.024,0.007,0.0,100.0,102.0,100.0,13.4,1505.2,330.4,-0.8,1.8,2470.464,13.28,0.025,286.3
2021-08-12T03:52:03,42.805,6.029,0.022,-0.026,-0.021,102.0,101.0,101.0,13.4,1505.2,326.8,-0.7,1.8,2470.495,13.28,0.034,139.8
2021-08-12T03:55:03,42.805,6.029,-0.018,-0.009,-0.003,101.0,102.0,100.0,13.3,1505.2,326.0,-0.8,1.8,2470.475,13.28,0.02,243.4
2021-08-12T03:58:03,42.805,6.029,0.009,-0.001,0.019,101.0,102.0,100.0,13.4,1505.2,327.3,-0.8,1.9,2470.491,13.28,0.009,96.3
2021-08-12T04:04:03,42.805,6.029,0.003,-0.011,0.008,101.0,101.0,101.0,13.4,1505.2,329.8,-0.8,1.8,2470.535,13.28,0.011,164.7
2021-08-12T04:07:03,42.805,6.029,0.013,0.009,0.023,101.0,102.0,100.0,13.3,1505.2,330.2,-0.8,1.8,2470.479,13.28,0.015,55.3
2021-08-12T04:10:03,42.805,6.029,-0.017,-0.012,-0.03,101.0,103.0,100.0,13.4,1505.2,326.5,-0.8,1.9,2470.493,13.28,0.02,234.8
2021-08-12T04:13:03,42.805,6.029,0.012,-0.029,0.005,101.0,101.0,100.0,13.4,1505.2,326.4,-0.8,1.8,2470.477,13.28,0.031,157.5
2021-08-12T04:16:03,42.805,6.029,-0.007,-0.005,-0.019,102.0,101.0,102.0,13.4,1505.2,325.9,-0.7,1.8,2470.453,13.28,0.008,234.5
2021-08-12T04:19:03,42.805,6.029,-0.01,-0.019,-0.016,102.0,102.0,100.0,13.3,1505.2,328.3,-0.7,1.8,2470.503,13.28,0.021,207.8
2021-08-12T04:22:03,42.805,6.029,0.001,-0.002,-0.032,102.0,102.0,100.0,13.4,1505.2,329.1,-0.8,1.8,2470.488,13.28,0.002,153.4
2021-08-12T04:25:03,42.805,6.029,-0.005,-0.009,-0.026,101.0,105.0,100.0,13.4,1505.2,327.4,-0.8,1.8,2470.435,13.28,0.01,209.1
2021-08-12T04:28:03,42.805,6.029,0.024,-0.004,-0.023,100.0,102.0,101.0,13.4,1505.2,326.6,-0.7,1.8,2470.508,13.28,0.024,99.5
2021-08-12T04:31:03,42.805,6.029,-0.002,-0.005,-0.005,101.0,102.0,99.0,13.4,1505.2,328.5,-0.8,1.8,2470.467,13.28,0.005,201.8
2021-08-12T04:34:03,42.805,6.029,0.003,-0.024,-0.028,100.0,101.0,101.0,13.3,1505.2,328.5,-0.8,1.8,2470.448,13.28,0.024,172.9
2021-08-12T04:37:03,42.805,6.029,-0.003,-0.042,-0.039,101.0,102.0,99.0,13.4,1505.2,328.9,-0.7,1.8,2470.421,13.28,0.042,184.1
2021-08-12T04:40:03,42.805,6.029,-0.018,-0.012,-0.032,101.0,100.0,100.0,13.4,1505.2,327.0,-0.7,1.8,2470.448,13.28,0.021,236.3
2021-08-12T04:43:03,42.805,6.029,0.0,0.0,-0.017,103.0,102.0,101.0,13.4,1505.2,327.1,-0.8,1.8,2470.503,13.29,0.0,0.0
2021-08-12T04:46:03,42.805,6.029,0.007,-0.008,0.005,100.0,102.0,101.0,13.4,1505.2,325.4,-0.8,1.8,2470.467,13.29,0.01,138.8
2021-08-12T04:49:03,42.805,6.029,0.016,-0.009,-0.008,102.0,101.0,100.0,13.4,1505.2,328.6,-0.8,1.8,2470.46,13.29,0.018,119.4
2021-08-12T04:52:03,42.805,6.029,-0.014,-0.016,-0.009,100.0,102.0,100.0,13.4,1505.2,328.5,-0.8,1.8,2470.504,13.29,0.021,221.2
2021-08-12T04:55:03,42.805,6.029,0.007,-0.004,0.0,101.0,101.0,100.0,13.4,1505.2,329.5,-0.7,1.8,2470.462,13.29,0.008,119.7
2021-08-12T04:58:03,42.805,6.029,-0.018,-0.005,-0.001,101.0,101.0,102.0,13.4,1505.2,325.8,-0.8,1.8,2470.445,13.29,0.018,254.5
2021-08-12T05:04:03,42.805,6.029,-0.009,-0.013,-0.004,102.0,101.0,99.0,13.3,1505.2,325.6,-0.8,1.9,2470.487,13.28,0.015,214.7
2021-08-12T05:07:03,42.805,6.029,0.008,-0.016,-0.003,102.0,101.0,99.0,13.4,1505.2,325.3,-0.8,1.8,2470.47,13.28,0.017,153.4
2021-08-12T05:10:03,42.805,6.029,0.012,0.005,0.017,101.0,102.0,100.0,13.4,1505.2,326.2,-0.8,1.8,2470.508,13.29,0.013,67.4
2021-08-12T05:13:03,42.805,6.029,-0.004,0.012,0.014,102.0,103.0,99.0,13.4,1505.2,329.7,-0.7,1.8,2470.468,13.29,0.012,341.6
2021-08-12T05:16:03,42.805,6.029,-0.012,0.001,-0.01,103.0,101.0,100.0,13.3,1505.2,327.0,-0.7,1.8,2470.495,13.29,0.012,274.8
2021-08-12T05:19:03,42.805,6.029,-0.01,0.007,0.019,100.0,101.0,100.0,13.4,1505.2,327.1,-0.7,1.8,2470.502,13.29,0.012,305.0
2021-08-12T05:22:03,42.805,6.029,0.007,0.001,-0.01,99.0,102.0,100.0,13.4,1505.2,331.2,-0.8,1.8,2470.483,13.29,0.007,81.9
2021-08-12T05:25:03,42.805,6.029,-0.011,0.004,-0.037,100.0,101.0,102.0,13.4,1505.2,327.8,-0.8,1.8,2470.47,13.29,0.011,290.0
2021-08-12T05:28:03,42.805,6.029,-0.004,-0.005,-0.016,99.0,102.0,101.0,13.4,1505.2,327.7,-0.7,1.8,2470.445,13.29,0.006,218.7
2021-08-12T05:31:03,42.805,6.029,0.011,0.002,0.019,101.0,101.0,100.0,13.4,1505.2,325.3,-0.8,1.8,2470.467,13.29,0.011,79.7
2021-08-12T05:34:03,42.805,6.029,-0.014,0.016,0.008,100.0,101.0,100.0,13.4,1505.2,327.0,-0.8,1.8,2470.441,13.29,0.021,318.8
2021-08-12T05:37:03,42.805,6.029,-0.001,-0.004,-0.007,104.0,101.0,100.0,13.3,1505.2,328.3,-0.8,1.8,2470.443,13.29,0.004,194.0
2021-08-12T05:40:03,42.805,6.029,0.01,-0.008,-0.013,101.0,105.0,99.0,13.4,1505.2,328.8,-0.7,1.8,2470.473,13.29,0.012,128.7
2021-08-12T05:43:03,42.805,6.029,-0.003,0.015,-0.003,101.0,103.0,99.0,13.3,1505.2,330.2,-0.7,1.8,2470.472,13.29,0.015,348.7
2021-08-12T05:46:03,42.805,6.029,0.0,-0.01,0.005,101.0,100.0,103.0,13.3,1505.2,327.3,-0.8,1.8,2470.494,13.29,0.01,180.0
2021-08-12T05:49:03,42.805,6.029,0.0,-0.005,-0.006,100.0,101.0,100.0,13.3,1505.2,329.5,-0.8,1.9,2470.482,13.29,0.005,180.0
2021-08-12T05:52:03,42.805,6.029,-0.029,0.015,0.018,100.0,100.0,101.0,13.4,1505.2,327.5,-0.8,1.8,2470.44,13.29,0.032,297.4
2021-08-12T05:55:03,42.805,6.029,-0.007,-0.003,-0.026,100.0,102.0,101.0,13.4,1505.2,329.8,-0.8,1.8,2470.453,13.29,0.007,246.8
2021-08-12T05:58:03,42.805,6.029,0.007,-0.003,0.024,100.0,101.0,101.0,13.3,1505.2,328.7,-0.8,1.8,2470.501,13.29,0.007,113.2
2021-08-12T06:04:03,42.805,6.029,-0.003,-0.003,-0.014,102.0,102.0,103.0,13.3,1505.2,325.8,-0.7,1.8,2470.513,13.29,0.004,225.0
2021-08-12T06:07:03,42.805,6.029,0.006,-0.027,-0.02,102.0,101.0,100.0,13.4,1505.2,331.0,-0.7,1.8,2470.503,13.29,0.027,167.5
2021-08-12T06:10:03,42.805,6.029,-0.003,-0.009,-0.017,103.0,102.0,100.0,13.4,1505.2,327.1,-0.7,1.9,2470.523,13.29,0.009,198.4
2021-08-12T06:13:03,42.805,6.029,-0.011,-0.005,0.003,101.0,101.0,101.0,13.4,1505.2,327.8,-0.7,1.8,2470.496,13.29,0.012,245.6
2021-08-12T06:16:03,42.805,6.029,-0.006,0.0,0.013,101.0,102.0,100.0,13.4,1505.2,324.7,-0.8,1.8,2470.539,13.29,0.006,270.0
2021-08-12T06:19:03,42.805,6.029,0.0,-0.002,0.003,102.0,101.0,100.0,13.4,1505.2,328.6,-0.8,1.9,2470.465,13.29,0.002,180.0
2021-08-12T06:22:03,42.805,6.029,0.017,-0.014,-0.02,102.0,100.0,101.0,13.4,1505.2,325.6,-0.7,1.8,2470.504,13.29,0.022,129.5
2021-08-12T06:25:03,42.805,6.029,0.005,-0.01,-0.007,103.0,102.0,101.0,13.3,1505.2,325.2,-0.7,1.8,2470.51,13.29,0.011,153.4
2021-08-12T06:28:03,42.805,6.029,-0.009,0.01,0.02,101.0,101.0,101.0,13.4,1505.2,327.2,-0.8,1.8,2470.511,13.29,0.013,318.0
2021-08-12T06:31:03,42.805,6.029,-0.005,0.003,0.002,102.0,103.0,102.0,13.4,1505.2,328.6,-0.8,1.9,2470.501,13.29,0.005,301.0
2021-08-12T06:34:03,42.805,6.029,-0.013,0.006,-0.021,102.0,101.0,100.0,13.4,1505.2,327.7,-0.8,1.8,2470.505,13.29,0.014,294.8
2021-08-12T06:37:03,42.805,6.029,-0.006,0.0,-0.019,102.0,103.0,99.0,13.4,1505.2,325.0,-0.8,1.8,2470.478,13.29,0.006,270.0
2021-08-12T06:40:03,42.805,6.029,0.014,-0.004,-0.015,100.0,100.0,102.0,13.4,1505.2,330.2,-0.8,1.8,2470.52,13.29,0.014,105.9
2021-08-12T06:43:03,42.805,6.029,0.01,0.001,-0.013,101.0,104.0,100.0,13.4,1505.2,329.0,-0.8,1.8,2470.509,13.29,0.01,84.3
2021-08-12T06:46:03,42.805,6.029,0.013,-0.014,0.038,103.0,101.0,100.0,13.4,1505.2,326.2,-0.7,1.8,2470.504,13.29,0.019,137.1
2021-08-12T06:49:03,42.805,6.029,-0.006,-0.012,0.026,102.0,103.0,99.0,13.4,1505.2,329.1,-0.8,1.8,2470.542,13.29,0.013,206.6
2021-08-12T06:52:03,42.805,6.029,0.0,-0.001,0.012,100.0,101.0,101.0,13.4,1505.2,327.2,-0.8,1.8,2470.529,13.29,0.001,180.0
2021-08-12T06:55:03,42.805,6.029,0.013,-0.004,0.014,101.0,102.0,100.0,13.3,1505.2,328.7,-0.8,1.8,2470.537,13.29,0.013,107.1
2021-08-12T06:58:03,42.805,6.029,0.012,-0.039,-0.009,101.0,101.0,100.0,13.4,1505.2,328.9,-0.7,1.8,2470.543,13.29,0.04,162.9
2021-08-12T07:04:03,42.805,6.029,0.021,0.009,-0.005,101.0,102.0,100.0,13.4,1505.2,329.6,-0.8,1.8,2470.6,13.28,0.022,66.8
2021-08-12T07:07:03,42.805,6.029,-0.011,0.01,0.026,100.0,101.0,102.0,13.4,1505.2,329.1,-0.7,1.8,2470.578,13.29,0.014,312.3
2021-08-12T07:10:03,42.805,6.029,0.004,0.002,0.0,102.0,99.0,101.0,13.4,1505.2,330.6,-0.7,1.8,2470.545,13.29,0.004,63.4
2021-08-12T07:13:03,42.805,6.029,-0.011,0.001,0.015,101.0,101.0,100.0,13.3,1505.2,325.9,-0.7,1.8,2470.578,13.29,0.011,275.2
2021-08-12T07:16:03,42.805,6.029,-0.008,-0.004,-0.007,103.0,101.0,105.0,13.4,1505.2,325.6,-0.7,1.8,2470.527,13.29,0.008,243.4
2021-08-12T07:19:03,42.805,6.029,-0.004,-0.023,0.008,101.0,100.0,100.0,13.4,1505.2,325.4,-0.7,1.8,2470.571,13.29,0.023,189.9
2021-08-12T07:22:03,42.805,6.029,-0.024,-0.009,-0.027,101.0,102.0,99.0,13.4,1505.2,325.2,-0.7,1.9,2470.548,13.29,0.025,249.4
2021-08-12T07:25:03,42.805,6.029,-0.004,-0.023,-0.038,100.0,101.0,101.0,13.4,1505.2,329.9,-0.7,1.8,2470.568,13.29,0.023,189.9
2021-08-12T07:28:03,42.805,6.029,-0.017,-0.007,-0.016,101.0,102.0,100.0,13.4,1505.2,329.3,-0.7,1.8,2470.578,13.29,0.018,247.6
2021-08-12T07:31:03,42.805,6.029,-0.017,0.008,-0.009,101.0,102.0,100.0,13.4,1505.2,328.9,-0.7,1.8,2470.573,13.29,0.018,295.2
2021-08-12T07:34:03,42.805,6.029,0.005,0.008,0.01,100.0,101.0,101.0,13.3,1505.2,325.2,-0.8,1.8,2470.558,13.29,0.009,32.0
2021-08-12T07:37:03,42.805,6.029,-0.018,-0.013,-0.018,102.0,101.0,100.0,13.3,1505.2,327.0,-0.7,1.9,2470.552,13.29,0.022,234.2
2021-08-12T07:40:03,42.805,6.029,-0.003,-0.003,0.007,101.0,102.0,101.0,13.4,1505.2,329.1,-0.7,1.8,2470.585,13.29,0.004,225.0
2021-08-12T07:43:03,42.805,6.029,0.005,-0.003,-0.01,102.0,101.0,99.0,13.3,1505.2,325.5,-0.8,1.8,2470.575,13.29,0.005,121.0
2021-08-12T07:46:03,42.805,6.029,0.0,0.006,-0.008,102.0,101.0,100.0,13.4,1505.2,330.6,-0.8,1.8,2470.558,13.29,0.006,0.0
2021-08-12T07:49:03,42.805,6.029,-0.01,0.006,-0.016,102.0,101.0,100.0,13.4,1505.2,326.7,-0.8,1.8,2470.578,13.29,0.011,301.0
2021-08-12T07:52:03,42.805,6.029,-0.023,0.004,-0.015,101.0,102.0,100.0,13.4,1505.2,326.4,-0.8,1.8,2470.592,13.29,0.023,279.9
2021-08-12T07:55:03,42.805,6.029,-0.003,0.018,0.035,101.0,102.0,100.0,13.4,1505.2,327.2,-0.7,1.8,2470.588,13.29,0.018,350.5
2021-08-12T07:58:03,42.805,6.029,0.016,-0.015,-0.012,102.0,102.0,100.0,13.4,1505.2,327.8,-0.7,1.8,2470.615,13.29,0.021,133.1
2021-08-12T08:04:03,42.805,6.029,0.002,0.007,0.013,101.0,101.0,100.0,13.4,1505.2,326.2,-0.8,1.8,2470.641,13.29,0.007,15.9
2021-08-12T08:07:03,42.805,6.029,0.004,0.007,-0.007,101.0,102.0,100.0,13.3,1505.2,328.6,-0.8,1.9,2470.572,13.29,0.008,29.7
2021-08-12T08:10:03,42.805,6.029,-0.002,0.007,0.006,101.0,101.0,100.0,13.4,1505.2,330.2,-0.8,1.9,2470.636,13.29,0.007,344.1
2021-08-12T08:13:03,42.805,6.029,0.0,0.007,0.026,101.0,102.0,100.0,13.3,1505.2,326.3,-0.8,1.8,2470.614,13.29,0.007,0.0
2021-08-12T08:16:03,42.805,6.029,-0.011,0.0,-0.001,101.0,101.0,101.0,13.4,1505.2,327.5,-0.8,1.8,2470.647,13.29,0.011,270.0
2021-08-12T08:19:03,42.805,6.029,-0.004,0.005,-0.003,101.0,102.0,101.0,13.4,1505.2,327.6,-0.8,1.8,2470.587,13.29,0.006,321.3
2021-08-12T08:22:03,42.805,6.029,-0.007,0.0,-0.004,102.0,103.0,100.0,13.4,1505.2,330.1,-0.7,1.8,2470.604,13.29,0.007,270.0
2021-08-12T08:25:03,42.805,6.029,0.0,-0.004,-0.018,101.0,102.0,100.0,13.4,1505.2,329.1,-0.7,1.8,2470.608,13.29,0.004,180.0
2021-08-12T08:28:03,42.805,6.029,-0.002,0.01,0.029,102.0,101.0,100.0,13.3,1505.2,326.9,-0.7,1.8,2470.612,13.29,0.01,348.7
2021-08-12T08:31:03,42.805,6.029,-0.01,-0.017,-0.037,102.0,104.0,100.0,13.3,1505.2,326.0,-0.8,1.8,2470.618,13.29,0.019,210.5
2021-08-12T08:34:03,42.805,6.029,-0.022,0.022,0.002,102.0,102.0,100.0,13.3,1505.2,330.1,-0.7,1.8,2470.607,13.29,0.031,315.0
2021-08-12T08:37:03,42.805,6.029,-0.036,0.007,-0.039,102.0,101.0,100.0,13.4,1505.2,328.9,-0.8,1.8,2470.615,13.29,0.036,281.0
2021-08-12T08:40:03,42.805,6.029,0.02,-0.005,0.002,102.0,103.0,100.0,13.3,1505.2,325.9,-0.8,1.8,2470.588,13.29,0.02,104.0
2021-08-12T08:43:03,42.805,6.029,0.019,0.01,0.031,101.0,102.0,100.0,13.4,1505.2,328.5,-0.8,1.8,2470.569,13.29,0.021,62.2
2021-08-12T08:46:03,42.805,6.029,-0.017,0.015,-0.025,102.0,103.0,100.0,13.3,1505.2,325.6,-0.7,1.8,2470.626,13.29,0.022,311.4
2021-08-12T08:49:03,42.805,6.029,0.004,0.001,0.006,101.0,102.0,100.0,13.4,1505.2,328.0,-0.7,1.8,2470.627,13.29,0.004,76.0
2021-08-12T08:52:03,42.805,6.029,-0.003,0.014,0.0,102.0,101.0,101.0,13.4,1505.2,328.9,-0.8,1.8,2470.588,13.29,0.014,347.9
2021-08-12T08:55:03,42.805,6.029,-0.002,-0.007,-0.023,101.0,102.0,100.0,13.4,1505.2,327.9,-0.8,1.9,2470.621,13.29,0.007,195.9
2021-08-12T08:58:03,42.805,6.029,-0.017,0.012,0.005,102.0,102.0,101.0,13.4,1505.2,327.5,-0.7,1.8,2470.596,13.29,0.02,305.2
2021-08-12T09:04:03,42.805,6.029,0.006,0.001,0.003,102.0,101.0,100.0,13.4,1505.2,327.0,-0.8,1.8,2470.613,13.29,0.006,80.5
2021-08-12T09:07:03,42.805,6.029,-0.005,0.006,0.022,103.0,100.0,100.0,13.4,1505.2,328.8,-0.7,1.8,2470.64,13.29,0.007,320.2
2021-08-12T09:10:03,42.805,6.029,0.001,0.02,0.017,102.0,103.0,100.0,13.3,1505.2,328.9,-0.8,1.8,2470.645,13.29,0.02,2.9
2021-08-12T09:13:03,42.805,6.029,0.0,0.013,0.033,101.0,102.0,100.0,13.4,1505.2,328.5,-0.8,1.8,2470.633,13.29,0.013,0.0
2021-08-12T09:16:03,42.805,6.029,0.003,-0.013,-0.012,102.0,102.0,101.0,13.3,1505.2,329.0,-0.7,1.8,2470.608,13.29,0.013,167.0
2021-08-12T09:19:03,42.805,6.029,-0.008,0.004,-0.007,101.0,104.0,100.0,13.4,1505.2,328.0,-0.8,1.8,2470.643,13.29,0.008,296.6
2021-08-12T09:22:03,42.805,6.029,0.004,0.003,0.019,101.0,101.0,101.0,13.4,1505.2,328.0,-0.8,1.8,2470.646,13.29,0.005,53.1
2021-08-12T09:25:03,42.805,6.029,-0.032,0.012,-0.012,100.0,101.0,100.0,13.3,1505.2,325.6,-0.8,1.8,2470.625,13.29,0.034,290.6
2021-08-12T09:28:03,42.805,6.029,0.001,0.001,-0.01,101.0,101.0,101.0,13.3,1505.2,329.9,-0.8,1.8,2470.63,13.29,0.001,45.0
2021-08-12T09:31:03,42.805,6.029,-0.007,0.005,0.0,102.0,102.0,100.0,13.4,1505.2,327.0,-0.7,1.8,2470.598,13.29,0.008,305.5
2021-08-12T09:34:03,42.805,6.029,0.025,0.019,0.017,102.0,102.0,100.0,13.4,1505.2,327.9,-0.7,1.9,2470.638,13.29,0.031,52.8
2021-08-12T09:37:03,42.805,6.029,0.003,0.004,-0.006,101.0,102.0,101.0,13.4,1505.2,325.7,-0.7,1.8,2470.667,13.29,0.005,36.9
2021-08-12T09:40:03,42.805,6.029,0.001,0.0,0.012,102.0,102.0,100.0,13.4,1505.2,325.6,-0.7,1.8,2470.635,13.29,0.001,90.0
2021-08-12T09:43:03,42.805,6.029,-0.007,0.012,-0.003,104.0,100.0,103.0,13.3,1505.2,330.9,-0.7,1.8,2470.609,13.29,0.013,329.7
2021-08-12T09:46:03,42.805,6.029,-0.002,0.0,0.0,102.0,102.0,100.0,13.3,1505.2,328.8,-0.8,1.8,2470.619,13.29,0.002,270.0
2021-08-12T09:49:03,42.805,6.029,0.004,-0.002,0.008,101.0,104.0,100.0,13.3,1505.2,326.1,-0.7,1.8,2470.651,13.29,0.004,116.6
2021-08-12T09:52:03,42.805,6.029,0.012,0.003,-0.008,102.0,103.0,101.0,13.3,1505.2,330.7,-0.7,1.8,2470.62,13.29,0.012,76.0
2021-08-12T09:55:03,42.805,6.029,0.007,0.002,-0.012,102.0,104.0,99.0,13.3,1505.2,327.7,-0.8,1.8,2470.645,13.29,0.007,74.1
2021-08-12T09:58:03,42.805,6.029,0.007,-0.005,0.015,102.0,103.0,100.0,13.4,1505.2,328.3,-0.8,1.8,2470.632,13.29,0.008,125.5